QPF
0.01 0.00 0.00 0.00 0.00 0.00 0.00 0.00 0.00 0.00 0.00 0.00 0.00 0.00 0.00 0.00 0.00 0.00 0.00 0.00 0.00 0.00 0.00 0.00 0.00 0.01 0.02 0.02 0.02 0.02 0.01 0.01 0.00 0.00 0.00 0.00 0.00 0.01 0.01 0.01 0.01 0.01 0.00
0.00 0.00 0.00 0.00 0.00 0.00 0.00 0.00 0.00 0.00 0.00 0.00 0.00 0.00 0.00 0.00 0.00 0.00 0.00 0.00 0.00 0.00 0.00 0.00 0.01 0.01 0.01 0.01 0.02 0.03 0.02 0.01 0.01 0.00 0.00 0.00 0.01 0.01 0.01 0.01 0.01 0.01 0.01
0.01 0.01 0.01 0.01 0.01 0.01 0.01 0.00 0.00 0.00 0.00 0.00 0.00 0.00 0.00 0.00 0.00 0.00 0.00 0.00 0.00 0.00 0.00 0.00 0.01 0.00 0.00 0.01 0.02 0.02 0.01 0.01 0.02 0.01 0.01 0.01 0.01 0.01 0.01 0.01 0.01 0.02 0.02
0.01 0.02 0.02 0.03 0.02 0.02 0.02 0.02 0.01 0.01 0.01 0.00 0.00 0.00 0.00 0.00 0.00 0.00 0.00 0.00 0.00 0.00 0.00 0.00 0.00 0.00 0.00 0.01 0.01 0.01 0.01 0.01 0.01 0.01 0.01 0.01 0.01 0.01 0.01 0.01 0.01 0.02 0.02
0.03 0.02 0.03 0.03 0.03 0.03 0.03 0.02 0.02 0.02 0.01 0.01 0.01 0.00 0.00 0.00 0.00 0.00 0.00 0.00 0.00 0.00 0.00 0.00 0.00 0.00 0.00 0.01 0.01 0.01 0.01 0.01 0.01 0.01 0.00 0.01 0.01 0.02 0.02 0.02 0.02 0.02 0.02
0.03 0.03 0.03 0.03 0.03 0.03 0.03 0.03 0.03 0.02 0.02 0.01 0.00 0.00 0.00 0.00 0.00 0.00 0.00 0.00 0.00 0.00 0.00 0.00 0.00 0.00 0.00 0.01 0.01 0.01 0.01 0.00 0.00 0.00 0.00 0.00 0.01 0.01 0.01 0.02 0.02 0.03 0.03
0.05 0.05 0.04 0.05 0.04 0.04 0.03 0.03 0.03 0.03 0.02 0.01 0.01 0.01 0.00 0.00 0.00 0.00 0.00 0.00 0.00 0.00 0.00 0.00 0.00 0.00 0.00 0.00 0.00 0.01 0.01 0.01 0.01 0.01 0.01 0.01 0.01 0.01 0.01 0.02 0.02 0.03 0.04
0.06 0.06 0.06 0.06 0.06 0.04 0.04 0.03 0.03 0.03 0.02 0.02 0.02 0.02 0.01 0.00 0.00 0.00 0.00 0.00 0.00 0.00 0.00 0.00 0.00 0.00 0.00 0.00 0.00 0.00 0.00 0.01 0.01 0.02 0.01 0.01 0.01 0.01 0.02 0.03 0.03 0.03 0.05
0.08 0.07 0.08 0.08 0.08 0.08 0.07 0.06 0.05 0.05 0.05 0.05 0.05 0.04 0.02 0.01 0.00 0.00 0.00 0.00 0.00 0.00 0.00 0.00 0.00 0.00 0.00 0.00 0.00 0.00 0.00 0.01 0.01 0.02 0.02 0.02 0.02 0.02 0.03 0.04 0.04 0.04 0.04
0.07 0.06 0.08 0.10 0.10 0.10 0.10 0.10 0.09 0.10 0.10 0.07 0.06 0.05 0.04 0.03 0.01 0.00 0.00 0.00 0.00 0.00 0.00 0.00 0.00 0.00 0.00 0.00 0.00 0.01 0.01 0.01 0.01 0.01 0.02 0.03 0.03 0.04 0.04 0.04 0.03 0.03 0.03
0.09 0.09 0.10 0.09 0.10 0.12 0.11 0.09 0.08 0.09 0.10 0.09 0.06 0.06 0.04 0.03 0.02 0.01 0.01 0.00 0.00 0.00 0.00 0.00 0.00 0.00 0.00 0.00 0.00 0.00 0.00 0.00 0.00 0.01 0.03 0.03 0.02 0.02 0.03 0.03 0.02 0.02 0.02
0.09 0.11 0.13 0.13 0.13 0.13 0.13 0.11 0.10 0.10 0.09 0.09 0.08 0.06 0.04 0.03 0.02 0.01 0.01 0.01 0.00 0.00 0.00 0.00 0.00 0.00 0.00 0.00 0.00 0.00 0.00 0.00 0.00 0.01 0.02 0.01 0.01 0.01 0.01 0.02 0.02 0.02 0.02
0.09 0.10 0.11 0.12 0.12 0.11 0.11 0.11 0.10 0.08 0.07 0.06 0.05 0.04 0.03 0.03 0.02 0.02 0.01 0.01 0.01 0.00 0.00 0.00 0.00 0.00 0.00 0.00 0.00 0.00 0.00 0.00 0.01 0.01 0.01 0.01 0.00 0.00 0.01 0.01 0.02 0.02 0.02
0.12 0.12 0.13 0.12 0.12 0.12 0.11 0.10 0.10 0.10 0.09 0.07 0.06 0.05 0.04 0.03 0.02 0.02 0.02 0.02 0.02 0.01 0.00 0.00 0.00 0.00 0.00 0.00 0.00 0.01 0.00 0.01 0.01 0.01 0.01 0.00 0.00 0.00 0.00 0.01 0.01 0.02 0.02
0.18 0.16 0.16 0.17 0.17 0.16 0.14 0.13 0.11 0.10 0.10 0.08 0.07 0.07 0.06 0.04 0.03 0.03 0.03 0.02 0.02 0.02 0.01 0.01 0.01 0.01 0.01 0.01 0.01 0.01 0.01 0.01 0.01 0.01 0.00 0.00 0.00 0.00 0.00 0.00 0.00 0.01 0.01
0.22 0.21 0.19 0.17 0.17 0.16 0.16 0.15 0.13 0.11 0.10 0.09 0.07 0.06 0.05 0.04 0.03 0.02 0.02 0.02 0.02 0.02 0.02 0.01 0.01 0.01 0.01 0.01 0.01 0.01 0.01 0.01 0.00 0.00 0.00 0.00 0.00 0.00 0.00 0.00 0.00 0.00 0.01
0.20 0.21 0.21 0.19 0.16 0.15 0.15 0.15 0.14 0.12 0.10 0.09 0.07 0.06 0.05 0.04 0.03 0.02 0.02 0.01 0.01 0.01 0.01 0.01 0.00 0.00 0.01 0.01 0.01 0.00 0.00 0.00 0.00 0.00 0.00 0.00 0.00 0.00 0.01 0.01 0.01 0.00 0.01
0.15 0.17 0.17 0.18 0.17 0.15 0.15 0.15 0.14 0.12 0.10 0.09 0.07 0.06 0.04 0.03 0.03 0.02 0.02 0.01 0.01 0.01 0.00 0.00 0.00 0.00 0.00 0.00 0.00 0.00 0.00 0.00 0.00 0.01 0.00 0.00 0.00 0.00 0.01 0.01 0.01 0.01 0.01
0.12 0.13 0.14 0.14 0.15 0.15 0.14 0.13 0.13 0.12 0.10 0.09 0.08 0.07 0.05 0.04 0.02 0.02 0.01 0.01 0.01 0.00 0.00 0.00 0.00 0.00 0.00 0.00 0.00 0.00 0.00 0.00 0.00 0.01 0.00 0.00 0.00 0.00 0.01 0.01 0.01 0.01 0.01
0.08 0.10 0.10 0.10 0.10 0.11 0.11 0.11 0.11 0.10 0.09 0.08 0.08 0.06 0.05 0.04 0.02 0.01 0.01 0.00 0.00 0.00 0.00 0.00 0.00 0.00 0.00 0.00 0.00 0.00 0.00 0.00 0.00 0.00 0.00 0.00 0.01 0.01 0.01 0.01 0.01 0.01 0.01
0.06 0.07 0.08 0.07 0.07 0.08 0.09 0.08 0.09 0.09 0.10 0.09 0.08 0.06 0.05 0.04 0.02 0.01 0.01 0.00 0.00 0.00 0.00 0.00 0.00 0.00 0.00 0.00 0.00 0.00 0.00 0.00 0.00 0.00 0.00 0.00 0.00 0.01 0.01 0.01 0.01 0.01 0.00
0.06 0.07 0.08 0.07 0.07 0.06 0.07 0.07 0.06 0.06 0.06 0.06 0.06 0.05 0.04 0.02 0.02 0.01 0.01 0.01 0.01 0.00 0.00 0.00 0.00 0.00 0.00 0.00 0.00 0.00 0.00 0.00 0.00 0.00 0.00 0.00 0.00 0.01 0.01 0.01 0.00 0.00 0.00
0.06 0.07 0.06 0.07 0.08 0.07 0.06 0.05 0.04 0.03 0.03 0.02 0.02 0.02 0.02 0.01 0.01 0.01 0.01 0.00 0.00 0.00 0.00 0.00 0.00 0.00 0.00 0.00 0.00 0.00 0.00 0.00 0.00 0.00 0.00 0.00 0.00 0.01 0.01 0.00 0.00 0.00 0.00
0.05 0.05 0.04 0.04 0.05 0.06 0.05 0.04 0.03 0.02 0.02 0.01 0.01 0.01 0.01 0.01 0.01 0.01 0.00 0.00 0.00 0.00 0.00 0.00 0.00 0.00 0.00 0.00 0.00 0.00 0.00 0.00 0.00 0.00 0.00 0.00 0.00 0.00 0.00 0.00 0.00 0.00 0.00
0.06 0.05 0.05 0.04 0.04 0.04 0.04 0.03 0.03 0.02 0.02 0.02 0.02 0.02 0.02 0.02 0.01 0.01 0.01 0.01 0.00 0.00 0.00 0.00 0.00 0.00 0.00 0.00 0.00 0.00 0.00 0.00 0.00 0.00 0.00 0.00 0.00 0.00 0.00 0.00 0.00 0.00 0.00
0.05 0.05 0.05 0.04 0.04 0.03 0.03 0.03 0.02 0.02 0.02 0.02 0.02 0.02 0.02 0.02 0.02 0.02 0.01 0.01 0.00 0.00 0.00 0.00 0.00 0.00 0.00 0.00 0.00 0.00 0.00 0.00 0.00 0.00 0.00 0.00 0.00 0.00 0.00 0.00 0.00 0.00 0.00
MSLP
1015.71 1016.21 1016.63 1016.98 1017.26 1017.48 1017.66 1017.81 1017.94 1018.04 1018.11 1018.14 1018.16 1018.15 1018.14 1018.15 1018.20 1018.30 1018.46 1018.65 1018.86 1019.07 1019.25 1019.38 1019.48 1019.54 1019.59 1019.63 1019.69 1019.77 1019.88 1019.99 1020.10 1020.18 1020.21 1020.19 1020.12 1020.01 1019.86 1019.70 1019.55 1019.41 1019.30
1015.32 1015.81 1016.26 1016.64 1016.96 1017.22 1017.43 1017.60 1017.74 1017.85 1017.92 1017.96 1017.97 1017.97 1017.96 1017.97 1018.02 1018.10 1018.24 1018.41 1018.61 1018.81 1019.00 1019.17 1019.30 1019.41 1019.50 1019.58 1019.68 1019.78 1019.89 1020.01 1020.11 1020.18 1020.21 1020.18 1020.10 1019.98 1019.83 1019.66 1019.50 1019.36 1019.24
1014.86 1015.35 1015.81 1016.23 1016.60 1016.92 1017.18 1017.40 1017.58 1017.72 1017.81 1017.88 1017.90 1017.91 1017.91 1017.91 1017.93 1017.99 1018.09 1018.23 1018.39 1018.58 1018.77 1018.95 1019.12 1019.27 1019.41 1019.54 1019.67 1019.79 1019.92 1020.03 1020.12 1020.18 1020.19 1020.14 1020.05 1019.91 1019.75 1019.57 1019.39 1019.24 1019.13
1014.38 1014.85 1015.33 1015.79 1016.21 1016.58 1016.91 1017.19 1017.42 1017.61 1017.76 1017.86 1017.92 1017.95 1017.95 1017.95 1017.96 1017.98 1018.04 1018.13 1018.26 1018.42 1018.59 1018.78 1018.97 1019.16 1019.34 1019.52 1019.68 1019.83 1019.96 1020.07 1020.15 1020.18 1020.17 1020.10 1019.99 1019.84 1019.66 1019.46 1019.28 1019.11 1018.98
1013.94 1014.39 1014.86 1015.33 1015.79 1016.21 1016.59 1016.93 1017.23 1017.48 1017.69 1017.85 1017.96 1018.03 1018.07 1018.08 1018.07 1018.08 1018.09 1018.14 1018.22 1018.34 1018.50 1018.69 1018.90 1019.11 1019.33 1019.54 1019.73 1019.90 1020.04 1020.14 1020.20 1020.21 1020.18 1020.09 1019.96 1019.79 1019.60 1019.40 1019.19 1019.01 1018.86
1013.59 1014.00 1014.44 1014.90 1015.36 1015.81 1016.23 1016.62 1016.97 1017.29 1017.56 1017.79 1017.97 1018.10 1018.19 1018.23 1018.24 1018.23 1018.23 1018.24 1018.29 1018.38 1018.52 1018.70 1018.92 1019.15 1019.39 1019.62 1019.83 1020.01 1020.15 1020.24 1020.29 1020.29 1020.23 1020.14 1019.99 1019.82 1019.62 1019.41 1019.20 1019.00 1018.84
1013.36 1013.70 1014.10 1014.52 1014.95 1015.39 1015.82 1016.23 1016.63 1017.00 1017.34 1017.64 1017.90 1018.11 1018.27 1018.36 1018.41 1018.42 1018.42 1018.42 1018.45 1018.52 1018.65 1018.82 1019.03 1019.28 1019.53 1019.77 1019.99 1020.17 1020.30 1020.38 1020.41 1020.40 1020.34 1020.23 1020.10 1019.93 1019.74 1019.53 1019.32 1019.12 1018.93
1013.23 1013.51 1013.84 1014.20 1014.58 1014.98 1015.39 1015.80 1016.22 1016.62 1017.02 1017.40 1017.74 1018.03 1018.26 1018.43 1018.53 1018.58 1018.61 1018.62 1018.66 1018.73 1018.85 1019.02 1019.23 1019.48 1019.73 1019.97 1020.18 1020.35 1020.47 1020.54 1020.56 1020.54 1020.48 1020.38 1020.26 1020.11 1019.95 1019.76 1019.56 1019.37 1019.17
1013.20 1013.42 1013.68 1013.97 1014.28 1014.62 1014.99 1015.37 1015.78 1016.20 1016.64 1017.07 1017.48 1017.85 1018.16 1018.40 1018.57 1018.68 1018.75 1018.80 1018.86 1018.95 1019.08 1019.26 1019.48 1019.72 1019.97 1020.19 1020.39 1020.54 1020.64 1020.69 1020.70 1020.68 1020.63 1020.56 1020.47 1020.36 1020.23 1020.08 1019.91 1019.72 1019.52
1013.21 1013.39 1013.59 1013.81 1014.06 1014.34 1014.64 1014.99 1015.37 1015.79 1016.24 1016.70 1017.15 1017.58 1017.96 1018.27 1018.51 1018.68 1018.81 1018.91 1019.02 1019.14 1019.30 1019.50 1019.73 1019.97 1020.21 1020.42 1020.60 1020.72 1020.80 1020.84 1020.84 1020.82 1020.79 1020.74 1020.69 1020.62 1020.54 1020.43 1020.30 1020.13 1019.93
1013.23 1013.38 1013.54 1013.71 1013.91 1014.13 1014.38 1014.67 1015.02 1015.41 1015.85 1016.32 1016.80 1017.26 1017.68 1018.04 1018.33 1018.57 1018.76 1018.92 1019.08 1019.26 1019.46 1019.69 1019.94 1020.20 1020.43 1020.64 1020.79 1020.90 1020.95 1020.97 1020.97 1020.95 1020.94 1020.92 1020.91 1020.89 1020.85 1020.79 1020.68 1020.53 1020.34
1013.19 1013.34 1013.49 1013.64 1013.80 1013.98 1014.18 1014.43 1014.74 1015.10 1015.51 1015.97 1016.44 1016.91 1017.34 1017.73 1018.06 1018.34 1018.58 1018.81 1019.03 1019.27 1019.53 1019.81 1020.10 1020.38 1020.63 1020.83 1020.97 1021.06 1021.11 1021.11 1021.10 1021.09 1021.09 1021.10 1021.11 1021.13 1021.13 1021.10 1021.02 1020.88 1020.68
1013.07 1013.25 1013.41 1013.56 1013.70 1013.85 1014.03 1014.24 1014.51 1014.84 1015.22 1015.64 1016.09 1016.54 1016.97 1017.36 1017.72 1018.03 1018.32 1018.59 1018.88 1019.18 1019.51 1019.85 1020.19 1020.51 1020.78 1021.00 1021.15 1021.24 1021.27 1021.27 1021.25 1021.24 1021.25 1021.27 1021.31 1021.35 1021.37 1021.36 1021.28 1021.14 1020.91
1012.88 1013.08 1013.27 1013.42 1013.57 1013.71 1013.87 1014.07 1014.31 1014.60 1014.95 1015.34 1015.76 1016.18 1016.60 1016.98 1017.34 1017.67 1017.99 1018.31 1018.66 1019.03 1019.42 1019.83 1020.22 1020.59 1020.91 1021.15 1021.32 1021.42 1021.46 1021.46 1021.44 1021.43 1021.44 1021.47 1021.51 1021.56 1021.58 1021.56 1021.48 1021.32 1021.06
1012.62 1012.85 1013.05 1013.22 1013.37 1013.52 1013.67 1013.86 1014.08 1014.36 1014.69 1015.05 1015.45 1015.85 1016.24 1016.61 1016.97 1017.31 1017.66 1018.03 1018.42 1018.85 1019.30 1019.77 1020.23 1020.65 1021.02 1021.30 1021.50 1021.62 1021.67 1021.68 1021.67 1021.66 1021.67 1021.70 1021.74 1021.77 1021.78 1021.75 1021.64 1021.44 1021.14
1012.33 1012.58 1012.78 1012.96 1013.12 1013.26 1013.42 1013.60 1013.82 1014.10 1014.42 1014.78 1015.16 1015.55 1015.93 1016.30 1016.66 1017.02 1017.39 1017.79 1018.22 1018.69 1019.20 1019.71 1020.22 1020.69 1021.10 1021.42 1021.66 1021.81 1021.88 1021.91 1021.92 1021.92 1021.93 1021.95 1021.98 1022.00 1021.99 1021.93 1021.79 1021.56 1021.22
1012.09 1012.31 1012.51 1012.68 1012.82 1012.96 1013.11 1013.30 1013.53 1013.81 1014.14 1014.51 1014.90 1015.31 1015.70 1016.09 1016.46 1016.83 1017.22 1017.64 1018.09 1018.59 1019.12 1019.67 1020.21 1020.71 1021.14 1021.50 1021.77 1021.95 1022.06 1022.11 1022.14 1022.16 1022.17 1022.20 1022.22 1022.23 1022.20 1022.12 1021.96 1021.70 1021.33
1011.92 1012.11 1012.27 1012.41 1012.53 1012.65 1012.79 1012.98 1013.22 1013.52 1013.88 1014.28 1014.70 1015.14 1015.57 1015.98 1016.38 1016.77 1017.17 1017.60 1018.06 1018.56 1019.09 1019.63 1020.17 1020.67 1021.12 1021.50 1021.79 1022.00 1022.14 1022.24 1022.29 1022.34 1022.37 1022.41 1022.44 1022.45 1022.42 1022.33 1022.16 1021.90 1021.52
1011.85 1011.99 1012.11 1012.20 1012.28 1012.37 1012.50 1012.68 1012.93 1013.25 1013.64 1014.09 1014.56 1015.04 1015.51 1015.97 1016.40 1016.81 1017.23 1017.65 1018.10 1018.57 1019.07 1019.58 1020.09 1020.57 1021.01 1021.38 1021.69 1021.93 1022.11 1022.24 1022.34 1022.42 1022.49 1022.56 1022.61 1022.63 1022.61 1022.54 1022.38 1022.14 1021.78
1011.87 1011.96 1012.02 1012.06 1012.09 1012.15 1012.25 1012.42 1012.68 1013.02 1013.45 1013.94 1014.46 1015.00 1015.52 1016.02 1016.48 1016.92 1017.34 1017.75 1018.16 1018.59 1019.04 1019.49 1019.94 1020.38 1020.78 1021.14 1021.46 1021.71 1021.93 1022.11 1022.26 1022.40 1022.51 1022.62 1022.70 1022.76 1022.77 1022.72 1022.60 1022.39 1022.09
1011.94 1011.98 1011.99 1011.97 1011.96 1011.98 1012.05 1012.21 1012.47 1012.83 1013.28 1013.80 1014.37 1014.96 1015.53 1016.07 1016.57 1017.02 1017.43 1017.82 1018.20 1018.57 1018.95 1019.34 1019.72 1020.10 1020.46 1020.80 1021.11 1021.39 1021.64 1021.87 1022.08 1022.27 1022.45 1022.60 1022.73 1022.83 1022.87 1022.86 1022.78 1022.63 1022.39
1012.00 1012.00 1011.96 1011.90 1011.85 1011.83 1011.88 1012.02 1012.27 1012.63 1013.10 1013.65 1014.25 1014.87 1015.48 1016.06 1016.58 1017.04 1017.45 1017.82 1018.16 1018.48 1018.80 1019.11 1019.44 1019.76 1020.08 1020.40 1020.71 1021.02 1021.30 1021.58 1021.85 1022.10 1022.34 1022.54 1022.71 1022.85 1022.93 1022.96 1022.92 1022.82 1022.64
1011.98 1011.94 1011.87 1011.78 1011.69 1011.65 1011.67 1011.80 1012.03 1012.39 1012.86 1013.42 1014.04 1014.69 1015.32 1015.92 1016.46 1016.94 1017.35 1017.70 1018.01 1018.30 1018.57 1018.84 1019.11 1019.40 1019.70 1020.01 1020.33 1020.66 1020.99 1021.32 1021.64 1021.95 1022.23 1022.48 1022.69 1022.85 1022.96 1023.01 1023.01 1022.95 1022.83
1011.83 1011.76 1011.66 1011.54 1011.44 1011.37 1011.39 1011.49 1011.72 1012.08 1012.54 1013.10 1013.72 1014.37 1015.02 1015.63 1016.19 1016.67 1017.09 1017.45 1017.76 1018.03 1018.29 1018.54 1018.80 1019.08 1019.38 1019.70 1020.05 1020.41 1020.78 1021.15 1021.52 1021.87 1022.19 1022.46 1022.69 1022.86 1022.98 1023.04 1023.05 1023.02 1022.95
1011.52 1011.42 1011.30 1011.16 1011.04 1010.97 1010.98 1011.09 1011.31 1011.66 1012.12 1012.67 1013.29 1013.94 1014.58 1015.20 1015.77 1016.27 1016.71 1017.09 1017.42 1017.71 1017.99 1018.26 1018.55 1018.85 1019.17 1019.53 1019.90 1020.30 1020.71 1021.13 1021.53 1021.90 1022.23 1022.52 1022.75 1022.91 1023.02 1023.07 1023.08 1023.05 1023.00
1011.08 1010.93 1010.78 1010.62 1010.50 1010.44 1010.45 1010.57 1010.80 1011.15 1011.61 1012.16 1012.77 1013.41 1014.06 1014.68 1015.26 1015.79 1016.26 1016.68 1017.05 1017.39 1017.72 1018.04 1018.38 1018.73 1019.10 1019.49 1019.91 1020.35 1020.79 1021.23 1021.64 1022.03 1022.36 1022.64 1022.85 1022.99 1023.08 1023.11 1023.10 1023.07 1023.02
Thickness
5697 5696 5695 5693 5693 5692 5692 5691 5690 5691 5692 5692 5692 5692 5691 5691 5691 5689 5688 5686 5684 5682 5680 5679 5678 5676 5675 5673 5671 5669 5666 5663 5660 5657 5654 5651 5647 5644 5641 5638 5635 5632 5628
5694 5693 5692 5691 5690 5690 5689 5688 5688 5689 5689 5688 5688 5688 5688 5687 5686 5685 5684 5682 5680 5678 5677 5675 5673 5672 5670 5668 5666 5664 5661 5658 5655 5652 5649 5646 5642 5639 5636 5633 5629 5626 5623
5690 5689 5688 5687 5687 5686 5686 5685 5685 5685 5684 5683 5683 5683 5683 5682 5682 5680 5679 5677 5675 5674 5672 5670 5668 5667 5665 5663 5661 5659 5656 5653 5650 5646 5643 5640 5637 5634 5630 5627 5624 5620 5617
5685 5684 5683 5683 5683 5682 5681 5680 5680 5678 5677 5677 5676 5677 5677 5676 5675 5675 5673 5672 5670 5668 5666 5664 5662 5661 5660 5658 5656 5653 5650 5647 5644 5641 5637 5634 5631 5628 5625 5622 5618 5615 5611
5680 5679 5679 5678 5678 5677 5676 5675 5674 5673 5670 5670 5670 5670 5670 5670 5669 5668 5667 5665 5663 5661 5659 5657 5656 5654 5653 5651 5649 5646 5643 5640 5637 5634 5631 5628 5625 5622 5619 5615 5612 5609 5606
5674 5674 5674 5673 5673 5672 5670 5669 5667 5667 5666 5664 5664 5663 5663 5663 5662 5661 5660 5658 5656 5654 5652 5650 5648 5647 5645 5644 5641 5639 5636 5633 5630 5626 5623 5620 5618 5615 5612 5609 5606 5603 5600
5669 5669 5668 5668 5667 5666 5664 5664 5662 5661 5659 5659 5655 5653 5655 5656 5655 5654 5652 5650 5648 5646 5644 5642 5640 5638 5636 5635 5632 5630 5627 5624 5621 5618 5615 5612 5610 5607 5605 5602 5599 5597 5594
5663 5664 5663 5662 5661 5659 5658 5657 5656 5654 5653 5652 5648 5644 5641 5642 5645 5647 5645 5642 5640 5638 5636 5634 5632 5630 5628 5625 5623 5620 5618 5615 5613 5610 5607 5604 5602 5599 5597 5595 5592 5590 5587
5656 5657 5657 5657 5655 5654 5653 5652 5651 5648 5645 5645 5644 5640 5635 5633 5635 5635 5635 5634 5632 5630 5627 5625 5623 5621 5618 5616 5613 5610 5608 5605 5603 5601 5598 5595 5593 5591 5588 5586 5583 5581 5579
5648 5649 5650 5650 5650 5650 5648 5647 5646 5643 5640 5637 5636 5636 5634 5633 5628 5625 5624 5624 5623 5621 5618 5616 5613 5611 5608 5606 5603 5600 5597 5595 5593 5591 5588 5586 5583 5580 5578 5576 5574 5572 5570
5641 5641 5641 5642 5642 5642 5642 5640 5638 5636 5634 5632 5629 5628 5627 5626 5625 5620 5616 5613 5612 5611 5609 5607 5604 5601 5598 5595 5592 5590 5587 5585 5583 5580 5578 5575 5572 5570 5567 5566 5564 5563 5561
5632 5633 5634 5635 5635 5634 5634 5632 5631 5629 5627 5625 5623 5621 5620 5617 5616 5614 5611 5607 5604 5601 5599 5598 5594 5591 5588 5585 5582 5579 5576 5574 5572 5569 5567 5564 5561 5559 5556 5555 5554 5553 5552
5624 5626 5627 5627 5627 5626 5625 5624 5622 5621 5619 5617 5616 5614 5613 5611 5610 5607 5603 5600 5597 5592 5590 5587 5585 5582 5578 5575 5572 5569 5566 5563 5561 5558 5555 5552 5549 5547 5545 5544 5543 5542 5541
5618 5619 5619 5619 5618 5618 5617 5616 5613 5612 5611 5609 5607 5606 5604 5602 5601 5598 5595 5591 5587 5584 5581 5578 5574 5571 5568 5565 5561 5558 5555 5552 5549 5546 5543 5540 5537 5535 5534 5533 5532 5531 5531
5610 5611 5610 5610 5610 5609 5608 5607 5605 5603 5602 5599 5597 5595 5593 5592 5590 5587 5586 5584 5580 5576 5574 5569 5564 5560 5557 5554 5551 5548 5545 5541 5538 5535 5532 5528 5526 5524 5523 5522 5521 5521 5521
5601 5602 5602 5602 5601 5599 5598 5597 5595 5594 5592 5589 5586 5584 5582 5580 5577 5576 5574 5572 5570 5568 5564 5560 5555 5550 5547 5542 5539 5537 5534 5530 5526 5523 5521 5518 5515 5513 5512 5511 5511 5511 5511
5593 5592 5592 5592 5591 5589 5588 5587 5585 5584 5582 5579 5576 5574 5572 5569 5567 5565 5563 5561 5559 5556 5553 5548 5544 5540 5536 5532 5528 5526 5522 5519 5515 5512 5510 5507 5505 5503 5501 5501 5500 5501 5501
5582 5582 5582 5581 5580 5579 5578 5576 5575 5573 5571 5569 5566 5563 5561 5558 5556 5554 5552 5550 5547 5545 5542 5538 5532 5528 5525 5522 5518 5514 5511 5508 5504 5501 5499 5497 5494 5492 5491 5490 5490 5490 5491
5569 5569 5569 5568 5568 5567 5566 5566 5564 5562 5560 5558 5556 5553 5550 5547 5545 5543 5541 5538 5536 5534 5532 5528 5523 5518 5514 5511 5506 5502 5499 5496 5493 5491 5489 5486 5483 5482 5480 5480 5479 5480 5481
5554 5555 5555 5555 5554 5554 5553 5552 5551 5549 5546 5544 5543 5541 5540 5537 5535 5532 5529 5526 5524 5522 5520 5516 5512 5507 5504 5500 5496 5491 5488 5485 5482 5480 5478 5476 5474 5472 5470 5469 5469 5469 5470
5540 5540 5540 5540 5540 5540 5539 5539 5537 5535 5533 5531 5529 5528 5526 5524 5523 5521 5519 5516 5513 5510 5508 5505 5502 5498 5494 5489 5486 5484 5479 5474 5472 5471 5468 5466 5464 5462 5460 5460 5459 5460 5460
5524 5524 5525 5525 5525 5525 5525 5524 5522 5520 5518 5517 5515 5512 5511 5509 5509 5508 5507 5505 5503 5500 5497 5495 5492 5489 5486 5483 5479 5476 5470 5465 5462 5461 5458 5456 5455 5453 5451 5450 5450 5451 5451
5508 5508 5509 5509 5509 5509 5509 5509 5507 5505 5504 5503 5501 5499 5498 5497 5495 5493 5493 5492 5490 5490 5489 5486 5483 5481 5478 5476 5472 5466 5463 5460 5457 5454 5450 5447 5446 5444 5443 5442 5442 5442 5442
5492 5493 5494 5494 5494 5495 5495 5495 5493 5491 5490 5489 5488 5487 5486 5484 5482 5481 5480 5478 5477 5477 5476 5475 5473 5471 5470 5468 5465 5461 5457 5450 5446 5444 5443 5439 5437 5436 5435 5434 5433 5433 5434
5477 5477 5478 5479 5480 5480 5481 5481 5479 5477 5476 5475 5475 5474 5473 5472 5472 5471 5469 5466 5464 5463 5464 5463 5462 5460 5459 5458 5456 5451 5446 5442 5437 5434 5434 5432 5429 5427 5426 5426 5426 5426 5426
5464 5464 5464 5465 5466 5467 5468 5467 5466 5464 5463 5462 5461 5461 5462 5461 5461 5460 5458 5456 5453 5452 5452 5451 5450 5448 5447 5447 5445 5442 5439 5434 5431 5427 5426 5424 5422 5420 5417 5418 5418 5419 5419